Terminal Aerodrome Forecast
Issued by NWS Boston, MA

Home | Current Version | Previous Version | Text Only | Print | Product List | Glossary On
Versions: 1 2 3 4 5 6 7 8 9 10 11 12 13 14 15 16 17 18 19 20 21 22 23 24 25 26 27 28 29 30 31 32 33 34 35 36 37 38
000
FTUS41 KBOX 220843 AAA
TAFBDL
TAF AMD
KBDL 220843Z 2209/2312 01011KT P6SM BKN010 OVC021
     FM221200 01009KT 6SM BR OVC008
     FM221800 01012KT 5SM BR OVC015
     FM222100 01013KT 3SM -SHRA BR OVC015
     FM230000 01013KT 3SM -SHRA BR OVC008=

USA.gov is the U.S. government's official web portal to all federal, state and local government web resources and services.